Weather in Naukseni

Latvia     57°53′02″N   25°27′33″E
temp.,
°C
wind,
m/s
gust,
m/s
humid.,
%
clouds,
%
prec.,
mm/h
press.,
hPa
HPBL,
m
8 august, mon
mon800:00+14w2285100 0.0 102261
03:00+12sw2289100 0.0 102229
06:00+12ssw2590100 0.0 1022113
09:00+16sw356884 0.0 1022755
12:00+16wsw3571100 0.1 1023562
15:00+18w3463100 0.4 1023758
18:00+16wnw1374100 0.1 1023209
21:00+15wsw117976 0.1 102426
9 august, tue
tue900:00+13w129019 0.0 102523
03:00+11nw11959 0.0 102511
06:00+10nw11955 0.0 102611
09:00+16nnw236841 0.0 1026384
12:00+20n225223 0.0 10261331
15:00+22n224367 0.8 10252120
18:00+19nw2462100 0.0 1026155
21:00+16nnw227299 0.0 102636
10 august, wed
wed1000:00+16nw1169100 0.0 102616
03:00+15nnw127381 0.0 102639
06:00+12n22870 0.0 102740
09:00+18nne11637 0.0 1027318
12:00+23wnw1242100 0.0 10261702
15:00+24w223684 0.0 10252232
18:00+22wnw444699 0.0 1026996
21:00+15nw226985 0.0 102621
11 august, thu
thu1100:00+12wsw117682 0.0 102610
03:00+11sw1176100 0.0 102611
06:00+11ssw227187 0.0 102714
09:00+18ssw24515 0.0 1026279
12:00+23sw46425 0.0 10261565
15:00+25wsw463430 0.0 10251773
18:00+24wsw364086 0.0 10241305
21:00+17wsw226614 0.0 102411
12 august, fri
fri1200:00+14ssw228014 0.0 102521
03:00+14sw26876 0.0 1025113
06:00+13sw24935 0.0 102564
09:00+20sw36625 0.0 1026409
12:00+25wsw35425 0.0 10251218
15:00+27wsw44365 0.0 10241564
18:00+26w343839 0.0 10241337
21:00+18w11655 0.0 102311